Weather History for KASJ - October, 2011

Change the Weather History Date:

Friday, October 21, 2011

  Actual Average (KEMV) Record (KEMV)
Temperature  
Mean Temperature 53 °F -  
Max Temperature 64 °F 69 °F 85 °F (1993)
Min Temperature 42 °F 43 °F 29 °F (1992)
Degree Days  
Heating Degree Days 12    
Growing Degree Days 3 (Base 50)    
Moisture  
Dew Point 43 °F    
Average Humidity 70    
Maximum Humidity 93    
Minimum Humidity 45    
Precipitation  
Precipitation 0.00 in - - ()
Sea Level Pressure  
Sea Level Pressure 30.02 in    
Wind  
Wind Speed 0 mph (NW)    
Max Wind Speed 6 mph    
Max Gust Speed -    
Visibility 10 miles    
Events      
Averages and records for this station are not official NWS values.
T = Trace of Precipitation, MM = Missing Value Source: NWS Daily Summary

Daily Weather History Graph

Daily Weather History Graph

Search for Another Location

Airport or City:

Trip Planner

Search our weather history database for the weather conditions in past years. The results will help you decide how hot, cold, wet, or windy it might be!

Date:

Astronomy

Oct. 21, 2011 Rise Set
Actual Time 7:20 AM EDT 6:25 PM EDT
Civil Twilight 6:54 AM EDT 6:51 PM EDT
Nautical Twilight 6:24 AM EDT 7:21 PM EDT
Astronomical Twilight 5:54 AM EDT 7:51 PM EDT
Moon 1:19 AM EDT (10/21) 2:59 PM EDT (10/21)
Length of Visible Light 11h 56m
Length of Day
11h 04m
Waning Crescent, 34% of the Moon is Illuminated
Oct 21
Waning Crescent
Oct 26
New
Nov 2
First Quarter
Nov 10
Full
Nov 18
Last Quarter

Hourly Weather History & Observations

Time (EDT) Temp. Dew Point Humidity Pressure Visibility Wind Dir Wind Speed Gust Speed Precip Events Conditions
12:15 AM 48.2 °F 42.8 °F 82% 29.93 in 10.0 mi Calm Calm - N/A   Clear
12:55 AM 46.4 °F 42.8 °F 87% 29.95 in 10.0 mi Calm Calm - N/A   Clear
1:15 AM 46.4 °F 42.8 °F 87% 29.96 in 10.0 mi Calm Calm - N/A   Clear
1:35 AM 44.6 °F 41.0 °F 87% 29.96 in 10.0 mi Calm Calm - N/A   Clear
1:55 AM 44.6 °F 41.0 °F 87% 29.97 in 10.0 mi Calm Calm - N/A   Clear
2:15 AM 44.6 °F 41.0 °F 87% 29.98 in 10.0 mi Calm Calm - N/A   Clear
2:35 AM 44.6 °F 41.0 °F 87% 29.98 in 10.0 mi Calm Calm - N/A   Clear
2:55 AM 44.6 °F 41.0 °F 87% 29.98 in 10.0 mi Calm Calm - N/A   Clear
3:15 AM 44.6 °F 41.0 °F 87% 29.98 in 10.0 mi Calm Calm - N/A   Clear
3:35 AM 44.6 °F 41.0 °F 87% 29.98 in 10.0 mi Calm Calm - N/A   Clear
3:55 AM 44.6 °F 41.0 °F 87% 29.98 in 10.0 mi Calm Calm - N/A   Clear
4:15 AM 44.6 °F 41.0 °F 87% 29.99 in 10.0 mi Calm Calm - N/A   Clear
4:35 AM 44.6 °F 41.0 °F 87% 29.99 in 10.0 mi Calm Calm - N/A   Clear
4:55 AM 44.6 °F 41.0 °F 87% 29.99 in 10.0 mi Calm Calm - N/A   Clear
5:15 AM 44.6 °F 41.0 °F 87% 30.00 in 10.0 mi Calm Calm - N/A   Clear
5:35 AM 44.6 °F 41.0 °F 87% 30.00 in 10.0 mi Calm Calm - N/A   Clear
5:55 AM 44.6 °F 41.0 °F 87% 30.01 in 10.0 mi Calm Calm - N/A   Clear
6:15 AM 44.6 °F 42.8 °F 93% 30.02 in 10.0 mi Calm Calm - N/A   Clear
6:35 AM 44.6 °F 42.8 °F 93% 30.02 in 10.0 mi Calm Calm - N/A   Clear
6:55 AM 44.6 °F 42.8 °F 93% 30.02 in 10.0 mi Calm Calm - N/A   Clear
7:15 AM 42.8 °F 39.2 °F 87% 30.03 in 10.0 mi Calm Calm - N/A   Clear
7:35 AM 42.8 °F 39.2 °F 87% 30.03 in 10.0 mi Calm Calm - N/A   Clear
7:55 AM 44.6 °F 42.8 °F 93% 30.04 in 10.0 mi Calm Calm - N/A   Clear
8:15 AM 44.6 °F 41.0 °F 87% 30.04 in 10.0 mi Calm Calm - N/A   Clear
8:35 AM 50.0 °F 44.6 °F 82% 30.04 in 10.0 mi Calm Calm - N/A   Clear
8:55 AM 50.0 °F 42.8 °F 76% 30.05 in 10.0 mi WNW 3.5 mph - N/A   Clear
9:15 AM 51.8 °F 44.6 °F 76% 30.05 in 10.0 mi Calm Calm - N/A   Clear
9:35 AM 51.8 °F 42.8 °F 71% 30.05 in 10.0 mi Calm Calm - N/A   Clear
9:55 AM 53.6 °F 42.8 °F 67% 30.05 in 10.0 mi Calm Calm - N/A   Clear
10:15 AM 55.4 °F 42.8 °F 63% 30.05 in 10.0 mi Calm Calm - N/A   Clear
10:35 AM 55.4 °F 41.0 °F 58% 30.06 in 10.0 mi NW 5.8 mph - N/A   Clear
10:55 AM 57.2 °F 41.0 °F 55% 30.06 in 10.0 mi NW 4.6 mph - N/A   Clear
11:15 AM 59.0 °F 39.2 °F 48% 30.06 in 10.0 mi NW 3.5 mph - N/A   Clear
11:35 AM 59.0 °F 41.0 °F 51% 30.06 in 10.0 mi NW 3.5 mph - N/A   Clear
11:55 AM 59.0 °F 41.0 °F 51% 30.06 in 10.0 mi Calm Calm - N/A   Clear
12:15 PM 60.8 °F 41.0 °F 48% 30.06 in 10.0 mi Calm Calm - N/A   Clear
12:35 PM 62.6 °F 41.0 °F 45% 30.05 in 10.0 mi Calm Calm - N/A   Clear
12:55 PM 62.6 °F 41.0 °F 45% 30.04 in 10.0 mi NW 4.6 mph - N/A   Clear
1:15 PM 64.4 °F 42.8 °F 45% 30.04 in 10.0 mi NW 3.5 mph - N/A   Clear
1:35 PM 64.4 °F 42.8 °F 45% 30.03 in 10.0 mi Calm Calm - N/A   Clear
1:55 PM 64.4 °F 42.8 °F 45% 30.02 in 10.0 mi WNW 3.5 mph - N/A   Clear
2:15 PM 64.4 °F 42.8 °F 45% 30.02 in 10.0 mi Calm Calm - N/A   Clear
2:35 PM 64.4 °F 42.8 °F 45% 30.01 in 10.0 mi Calm Calm - N/A   Clear
2:55 PM 64.4 °F 42.8 °F 45% 30.01 in 10.0 mi Calm Calm - N/A   Clear
3:15 PM 64.4 °F 42.8 °F 45% 30.01 in 10.0 mi Calm Calm - N/A   Clear
3:55 PM 64.4 °F 42.8 °F 45% 30.01 in 10.0 mi NW 4.6 mph - N/A   Clear
4:15 PM 64.4 °F 42.8 °F 45% 30.01 in 10.0 mi Calm Calm - N/A   Clear
4:35 PM 64.4 °F 44.6 °F 49% 30.01 in 10.0 mi Calm Calm - N/A   Clear
4:55 PM 64.4 °F 44.6 °F 49% 30.02 in 10.0 mi Calm Calm - N/A   Clear
5:15 PM 64.4 °F 44.6 °F 49% 30.02 in 10.0 mi Calm Calm - N/A   Clear
5:35 PM 62.6 °F 44.6 °F 52% 30.03 in 10.0 mi Calm Calm - N/A   Clear
5:55 PM 59.0 °F 44.6 °F 59% 30.03 in 10.0 mi Calm Calm - N/A   Clear
6:15 PM 57.2 °F 46.4 °F 67% 30.04 in 10.0 mi Calm Calm - N/A   Clear
6:35 PM 53.6 °F 46.4 °F 77% 30.05 in 5.0 mi Calm Calm - N/A   Haze
6:55 PM 53.6 °F 50.0 °F 88% 30.05 in 10.0 mi Calm Calm - N/A   Clear
7:15 PM 51.8 °F 46.4 °F 82% 30.06 in 10.0 mi Calm Calm - N/A   Clear
7:35 PM 51.8 °F 48.2 °F 88% 30.06 in 10.0 mi Calm Calm - N/A   Clear
7:55 PM 50.0 °F 44.6 °F 82% 30.06 in 10.0 mi Calm Calm - N/A   Clear
8:15 PM 50.0 °F 46.4 °F 87% 30.07 in 10.0 mi Calm Calm - N/A   Clear
8:35 PM 50.0 °F 46.4 °F 87% 30.08 in 10.0 mi Calm Calm - N/A   Clear
8:55 PM 50.0 °F 46.4 °F 87% 30.08 in 10.0 mi Calm Calm - N/A   Clear
9:15 PM 50.0 °F 46.4 °F 87% 30.08 in 10.0 mi Calm Calm - N/A   Clear
9:35 PM 50.0 °F 46.4 °F 87% 30.08 in 10.0 mi Calm Calm - N/A   Clear
9:55 PM 46.4 °F 44.6 °F 93% 30.09 in 10.0 mi Calm Calm - N/A   Clear
10:15 PM 46.4 °F 44.6 °F 93% 30.09 in 10.0 mi Calm Calm - N/A   Clear
10:35 PM 44.6 °F 42.8 °F 93% 30.09 in 10.0 mi Calm Calm - N/A   Clear
10:55 PM 44.6 °F 42.8 °F 93% 30.09 in 10.0 mi Calm Calm - N/A   Clear
11:15 PM 44.6 °F 42.8 °F 93% 30.09 in 10.0 mi Calm Calm - N/A   Clear
11:35 PM 44.6 °F 42.8 °F 93% 30.10 in 10.0 mi Calm Calm - N/A   Clear
11:55 PM 44.6 °F 42.8 °F 93% 30.09 in 10.0 mi Calm Calm - N/A   Clear